| time (UTC) | temp F | wind direction | speed knots | gust knots | rain 1hr in | rain 24hr in | rain mn in | humidity % | barometer mb |
| 20260503201803 | 53 | 196 | 2.6 | 3.5 | 0.00 | 0.48 | 0.09 | 90 | 1014.3 |
| 20260503200903 | 53 | 216 | 2.6 | 3.5 | 0.00 | 0.48 | 0.09 | 90 | 1014.2 |
| 20260503200003 | 53 | 195 | 3.5 | 3.5 | 0.00 | 0.48 | 0.09 | 90 | 1014.1 |
| 20260503195403 | 53 | 190 | 2.6 | 3.5 | 0.00 | 0.48 | 0.09 | 90 | 1014.1 |
| 20260503194503 | 53 | 195 | 2.6 | 4.3 | 0.00 | 0.48 | 0.09 | 89 | 1013.8 |
| 20260503193813 | 53 | 190 | 3.5 | 4.3 | 0.00 | 0.48 | 0.09 | 88 | 1013.9 |
| 20260503192703 | 54 | 187 | 3.5 | 3.5 | 0.00 | 0.48 | 0.09 | 87 | 1013.8 |
| 20260503191803 | 54 | 204 | 2.6 | 4.3 | 0.00 | 0.48 | 0.09 | 85 | 1013.8 |
| 20260503190903 | 55 | 212 | 2.6 | 3.5 | 0.00 | 0.48 | 0.09 | 81 | 1013.6 |
| 20260503190003 | 56 | 182 | 2.6 | 3.5 | 0.00 | 0.48 | 0.09 | 80 | 1013.7 |
| 20260503185403 | 56 | 179 | 2.6 | 3.5 | 0.00 | 0.48 | 0.09 | 79 | 1013.5 |
| 20260503184503 | 57 | 239 | 2.6 | 3.5 | 0.00 | 0.48 | 0.09 | 79 | 1013.4 |
| 20260503183603 | 57 | 214 | 2.6 | 3.5 | 0.00 | 0.48 | 0.09 | 79 | 1013.5 |
| 20260503182704 | 57 | 175 | 2.6 | 3.5 | 0.00 | 0.48 | 0.09 | 78 | 1013.5 |
| 20260503181803 | 57 | 180 | 3.5 | 3.5 | 0.00 | 0.48 | 0.09 | 78 | 1013.3 |
| 20260503180903 | 58 | 224 | 2.6 | 4.3 | 0.00 | 0.48 | 0.09 | 78 | 1013.1 |
| 20260503180215 | 58 | 214 | 2.6 | 3.5 | 0.00 | 0.48 | 0.09 | 77 | 1013.3 |
| 20260503175403 | 58 | 124 | 2.6 | 4.3 | 0.00 | 0.48 | 0.09 | 79 | 1013.0 |
| 20260503174503 | 57 | 197 | 2.6 | 4.3 | 0.00 | 0.48 | 0.09 | 80 | 1013.3 |
| 20260503173813 | 56 | 208 | 3.5 | 7.0 | 0.00 | 0.50 | 0.09 | 80 | 1013.1 |
| 20260503172703 | 56 | 197 | 3.5 | 4.3 | 0.00 | 0.50 | 0.09 | 80 | 1012.9 |
| 20260503171803 | 56 | 203 | 2.6 | 3.5 | 0.00 | 0.50 | 0.09 | 80 | 1013.1 |
| 20260503170903 | 56 | 275 | 2.6 | 4.3 | 0.00 | 0.50 | 0.09 | 80 | 1013.3 |
| 20260503160214 | 56 | 195 | 4.3 | 7.0 | 0.00 | 0.56 | 0.09 | 82 | 1013.1 |
| 20260503150903 | 58 | 207 | 4.3 | 7.0 | 0.00 | 0.60 | 0.09 | 78 | 1013.1 |
| 20260503130903 | 59 | 249 | 4.3 | 6.1 | 0.00 | 0.85 | 0.09 | 74 | 1013.4 |
| 20260503090213 | 58 | 83 | 1.7 | 2.6 | 0.00 | 0.87 | 0.09 | 94 | 1013.6 |
| 20260503081113 | 53 | 109 | 1.7 | 3.5 | 0.00 | 0.87 | 0.09 | 100 | 1013.6 |
| 20260503072703 | 53 | 42 | 1.7 | 2.6 | 0.00 | 0.87 | 0.09 | 100 | 1013.5 |
| 20260503071803 | 53 | 61 | 1.7 | 2.6 | 0.00 | 0.87 | 0.09 | 100 | 1013.3 |
| 20260502223603 | 52 | 165 | 0.9 | 1.7 | 0.00 | 0.39 | 0.39 | 100 | 1001.9 |
| 20260502222703 | 52 | 257 | 0.0 | 0.9 | 0.00 | 0.39 | 0.39 | 100 | 1002.1 |
| 20260502221803 | 52 | 315 | 0.0 | 0.9 | 0.00 | 0.39 | 0.39 | 100 | 1001.9 |
| 20260502220903 | 52 | 290 | 0.0 | 0.9 | 0.00 | 0.39 | 0.39 | 100 | 1002.2 |
| 20260502220003 | 52 | 155 | 0.0 | 1.7 | 0.00 | 0.39 | 0.39 | 100 | 1002.1 |
| 20260502215403 | 52 | 133 | 0.9 | 1.7 | 0.00 | 0.39 | 0.39 | 100 | 1002.3 |
| 20260502214712 | 52 | 128 | 0.0 | 1.7 | 0.00 | 0.39 | 0.39 | 100 | 1002.3 |
| 20260502213603 | 52 | 0 | 0.0 | 0.0 | 0.00 | 0.39 | 0.39 | 100 | 1002.1 |
| 20260502212703 | 52 | 0 | 0.0 | 0.0 | 0.00 | 0.39 | 0.39 | 100 | 1002.4 |
| 20260502212012 | 52 | 0 | 0.0 | 0.0 | 0.00 | 0.39 | 0.39 | 100 | 1002.2 |
| 20260502210903 | 52 | 113 | 0.0 | 0.9 | 0.00 | 0.39 | 0.39 | 100 | 1002.5 |
| 20260502210004 | 52 | 90 | 0.0 | 0.9 | 0.00 | 0.39 | 0.39 | 100 | 1002.0 |
| 20260502205403 | 52 | 315 | 0.9 | 1.7 | 0.00 | 0.39 | 0.39 | 100 | 1002.3 |
| 20260502204503 | 52 | 322 | 0.9 | 1.7 | 0.00 | 0.39 | 0.39 | 100 | 1002.4 |
| 20260502203603 | 52 | 315 | 0.9 | 1.7 | 0.00 | 0.39 | 0.39 | 100 | 1002.2 |
| 20260502202913 | 52 | 315 | 0.9 | 1.7 | 0.00 | 0.39 | 0.39 | 100 | 1002.4 |